Time,TemperatureF,DewpointF,PressureIn,WindDirection,WindDirectionDegrees,WindSpeedMPH,WindSpeedGustMPH,Humidity,HourlyPrecipIn,Conditions,Clouds,dailyrainin,SoftwareType,DateUTC
2013-03-20 00:00:00,40.0,17.0,29.83,WNW,298,14.0,32.0,40,-99.99,,,-99.99,,2013-03-20 04:00:00,
2013-03-20 00:23:00,40.0,17.0,29.83,WNW,298,14.0,32.0,40,-99.99,,,-99.99,,2013-03-20 04:23:00,
2013-03-20 00:32:00,40.0,17.0,29.83,WNW,298,14.0,32.0,40,-99.99,,,-99.99,,2013-03-20 04:32:00,
2013-03-20 00:43:00,40.0,17.0,29.83,WNW,298,14.0,32.0,40,-99.99,,,-99.99,,2013-03-20 04:43:00,
2013-03-20 00:53:00,40.0,17.0,29.83,WNW,298,14.0,32.0,40,-99.99,,,-99.99,,2013-03-20 04:53:00,
2013-03-20 03:00:00,35.0,19.0,29.88,West,280,6.0,26.0,52,-99.99,,,-99.99,,2013-03-20 07:00:00,
2013-03-20 03:32:00,35.0,19.0,29.88,West,280,6.0,26.0,52,-99.99,,,-99.99,,2013-03-20 07:32:00,
2013-03-20 03:42:00,35.0,19.0,29.88,West,280,6.0,26.0,52,-99.99,,,-99.99,,2013-03-20 07:42:00,
2013-03-20 03:52:00,35.0,19.0,29.88,West,280,6.0,26.0,52,-99.99,,,-99.99,,2013-03-20 07:52:00,
2013-03-20 04:00:00,34.0,19.0,29.88,West,262,8.0,26.0,55,-99.99,,,-99.99,,2013-03-20 08:00:00,
2013-03-20 04:22:00,34.0,19.0,29.88,West,262,8.0,26.0,55,-99.99,,,-99.99,,2013-03-20 08:22:00,
2013-03-20 04:32:00,34.0,19.0,29.88,West,262,8.0,26.0,55,-99.99,,,-99.99,,2013-03-20 08:32:00,
2013-03-20 04:42:00,34.0,19.0,29.88,West,262,8.0,26.0,55,-99.99,,,-99.99,,2013-03-20 08:42:00,
2013-03-20 04:52:00,34.0,19.0,29.88,West,262,8.0,26.0,55,-99.99,,,-99.99,,2013-03-20 08:52:00,
2013-03-20 05:00:00,33.0,19.0,29.88,West,268,11.0,15.0,55,-99.99,,,-99.99,,2013-03-20 09:00:00,
2013-03-20 05:33:00,33.0,19.0,29.88,West,268,11.0,15.0,55,-99.99,,,-99.99,,2013-03-20 09:33:00,
2013-03-20 05:43:00,33.0,19.0,29.88,West,268,11.0,15.0,55,-99.99,,,-99.99,,2013-03-20 09:43:00,
2013-03-20 05:53:00,33.0,19.0,29.88,West,268,11.0,15.0,55,-99.99,,,-99.99,,2013-03-20 09:53:00,
2013-03-20 06:00:00,33.0,19.0,29.88,WSW,246,10.0,15.0,57,-99.99,,,-99.99,,2013-03-20 10:00:00,
2013-03-20 06:33:00,33.0,19.0,29.88,WSW,246,10.0,15.0,57,-99.99,,,-99.99,,2013-03-20 10:33:00,
2013-03-20 06:43:00,33.0,19.0,29.88,WSW,246,10.0,15.0,57,-99.99,,,-99.99,,2013-03-20 10:43:00,
2013-03-20 06:53:00,33.0,19.0,29.88,WSW,246,10.0,15.0,57,-99.99,,,-99.99,,2013-03-20 10:53:00,
2013-03-20 07:00:00,33.0,18.0,29.88,West,270,9.0,16.0,55,-99.99,,,-99.99,,2013-03-20 11:00:00,
2013-03-20 07:22:00,33.0,18.0,29.88,West,270,9.0,16.0,55,-99.99,,,-99.99,,2013-03-20 11:22:00,
2013-03-20 07:32:00,33.0,18.0,29.88,West,270,9.0,16.0,55,-99.99,,,-99.99,,2013-03-20 11:32:00,
2013-03-20 07:42:00,33.0,18.0,29.88,West,270,9.0,16.0,55,-99.99,,,-99.99,,2013-03-20 11:42:00,
2013-03-20 07:52:00,33.0,18.0,29.88,West,270,9.0,16.0,55,-99.99,,,-99.99,,2013-03-20 11:52:00,
2013-03-20 08:00:00,34.0,17.0,29.88,West,270,14.0,21.0,48,-99.99,,,-99.99,,2013-03-20 12:00:00,
2013-03-20 08:22:00,34.0,17.0,29.88,West,270,14.0,21.0,48,-99.99,,,-99.99,,2013-03-20 12:22:00,
2013-03-20 08:33:00,34.0,17.0,29.88,West,270,14.0,21.0,48,-99.99,,,-99.99,,2013-03-20 12:33:00,
2013-03-20 08:43:00,34.0,17.0,29.88,West,270,14.0,21.0,48,-99.99,,,-99.99,,2013-03-20 12:43:00,
2013-03-20 08:52:00,34.0,17.0,29.88,West,270,14.0,21.0,48,-99.99,,,-99.99,,2013-03-20 12:52:00,
2013-03-20 09:00:00,37.0,17.0,29.88,WSW,249,13.0,27.0,44,-99.99,,,-99.99,,2013-03-20 13:00:00,
2013-03-20 09:22:00,37.0,17.0,29.88,WSW,249,13.0,27.0,44,-99.99,,,-99.99,,2013-03-20 13:22:00,
2013-03-20 09:32:00,37.0,17.0,29.88,WSW,249,13.0,27.0,44,-99.99,,,-99.99,,2013-03-20 13:32:00,
2013-03-20 09:43:00,37.0,17.0,29.88,WSW,249,13.0,27.0,44,-99.99,,,-99.99,,2013-03-20 13:43:00,
2013-03-20 09:53:00,37.0,17.0,29.88,WSW,249,13.0,27.0,44,-99.99,,,-99.99,,2013-03-20 13:53:00,
2013-03-20 10:00:00,38.0,17.0,29.88,WNW,286,18.0,31.0,42,-99.99,,,-99.99,,2013-03-20 14:00:00,
2013-03-20 10:23:00,38.0,17.0,29.88,WNW,286,18.0,31.0,42,-99.99,,,-99.99,,2013-03-20 14:23:00,
2013-03-20 10:34:00,38.0,17.0,29.88,WNW,286,18.0,31.0,42,-99.99,,,-99.99,,2013-03-20 14:34:00,
2013-03-20 10:43:00,38.0,17.0,29.88,WNW,286,18.0,31.0,42,-99.99,,,-99.99,,2013-03-20 14:43:00,
2013-03-20 10:53:00,38.0,17.0,29.88,WNW,286,18.0,31.0,42,-99.99,,,-99.99,,2013-03-20 14:53:00,
2013-03-20 11:00:00,40.0,20.0,29.88,WNW,285,9.0,30.0,44,-99.99,,,-99.99,,2013-03-20 15:00:00,
2013-03-20 11:33:00,40.0,20.0,29.88,WNW,285,9.0,30.0,44,-99.99,,,-99.99,,2013-03-20 15:33:00,
2013-03-20 11:43:00,40.0,20.0,29.88,WNW,285,9.0,30.0,44,-99.99,,,-99.99,,2013-03-20 15:43:00,
2013-03-20 11:53:00,40.0,20.0,29.88,WNW,285,9.0,30.0,44,-99.99,,,-99.99,,2013-03-20 15:53:00,
2013-03-20 12:00:00,41.0,16.0,29.88,West,272,18.0,29.0,36,-99.99,,,-99.99,,2013-03-20 16:00:00,
2013-03-20 12:23:00,41.0,16.0,29.88,West,272,18.0,29.0,36,-99.99,,,-99.99,,2013-03-20 16:23:00,
2013-03-20 12:33:00,41.0,16.0,29.88,West,272,18.0,29.0,36,-99.99,,,-99.99,,2013-03-20 16:33:00,
2013-03-20 12:43:00,41.0,16.0,29.88,West,272,18.0,29.0,36,-99.99,,,-99.99,,2013-03-20 16:43:00,
2013-03-20 12:53:00,41.0,16.0,29.88,West,272,18.0,29.0,36,-99.99,,,-99.99,,2013-03-20 16:53:00,
2013-03-20 13:00:00,44.0,18.0,29.85,West,277,20.0,25.0,35,-99.99,,,-99.99,,2013-03-20 17:00:00,
2013-03-20 13:22:00,44.0,18.0,29.85,West,277,20.0,25.0,35,-99.99,,,-99.99,,2013-03-20 17:22:00,
2013-03-20 13:33:00,44.0,18.0,29.85,West,277,20.0,25.0,35,-99.99,,,-99.99,,2013-03-20 17:33:00,
2013-03-20 13:42:00,44.0,18.0,29.85,West,277,20.0,25.0,35,-99.99,,,-99.99,,2013-03-20 17:42:00,
2013-03-20 13:53:00,44.0,18.0,29.85,West,277,20.0,25.0,35,-99.99,,,-99.99,,2013-03-20 17:53:00,
2013-03-20 14:00:00,45.0,18.0,29.83,West,278,7.0,28.0,32,-99.99,,,-99.99,,2013-03-20 18:00:00,
2013-03-20 14:22:00,45.0,18.0,29.83,West,278,7.0,28.0,32,-99.99,,,-99.99,,2013-03-20 18:22:00,
2013-03-20 14:34:00,45.0,18.0,29.83,West,278,7.0,28.0,32,-99.99,,,-99.99,,2013-03-20 18:34:00,
2013-03-20 14:43:00,45.0,18.0,29.83,West,278,7.0,28.0,32,-99.99,,,-99.99,,2013-03-20 18:43:00,
2013-03-20 14:53:00,45.0,18.0,29.83,West,278,7.0,28.0,32,-99.99,,,-99.99,,2013-03-20 18:53:00,
2013-03-20 15:00:00,47.0,21.0,29.80,SW,235,14.0,29.0,35,-99.99,,,-99.99,,2013-03-20 19:00:00,
2013-03-20 15:23:00,47.0,21.0,29.80,SW,235,14.0,29.0,35,-99.99,,,-99.99,,2013-03-20 19:23:00,
2013-03-20 15:33:00,47.0,21.0,29.80,SW,235,14.0,29.0,35,-99.99,,,-99.99,,2013-03-20 19:33:00,
2013-03-20 15:42:00,47.0,21.0,29.80,SW,235,14.0,29.0,35,-99.99,,,-99.99,,2013-03-20 19:42:00,
2013-03-20 15:53:00,47.0,21.0,29.80,SW,235,14.0,29.0,35,-99.99,,,-99.99,,2013-03-20 19:53:00,
2013-03-20 16:00:00,46.0,18.0,29.80,WSW,241,14.0,29.0,31,-99.99,,,-99.99,,2013-03-20 20:00:00,
2013-03-20 16:23:00,46.0,18.0,29.80,WSW,241,14.0,29.0,31,-99.99,,,-99.99,,2013-03-20 20:23:00,
2013-03-20 16:32:00,46.0,18.0,29.80,WSW,241,14.0,29.0,31,-99.99,,,-99.99,,2013-03-20 20:32:00,
2013-03-20 16:43:00,46.0,18.0,29.80,WSW,241,14.0,29.0,31,-99.99,,,-99.99,,2013-03-20 20:43:00,
2013-03-20 16:53:00,46.0,18.0,29.80,WSW,241,14.0,29.0,31,-99.99,,,-99.99,,2013-03-20 20:53:00,
2013-03-20 17:00:00,46.0,15.0,29.80,SW,229,18.0,28.0,28,-99.99,,,-99.99,,2013-03-20 21:00:00,
2013-03-20 17:23:00,46.0,15.0,29.80,SW,229,18.0,28.0,28,-99.99,,,-99.99,,2013-03-20 21:23:00,
2013-03-20 17:33:00,46.0,15.0,29.80,SW,229,18.0,28.0,28,-99.99,,,-99.99,,2013-03-20 21:33:00,
2013-03-20 17:42:00,46.0,15.0,29.80,SW,229,18.0,28.0,28,-99.99,,,-99.99,,2013-03-20 21:42:00,
2013-03-20 17:53:00,46.0,15.0,29.80,SW,229,18.0,28.0,28,-99.99,,,-99.99,,2013-03-20 21:53:00,
2013-03-20 18:00:00,47.0,15.0,29.80,WSW,249,15.0,27.0,28,-99.99,,,-99.99,,2013-03-20 22:00:00,
2013-03-20 18:23:00,47.0,15.0,29.80,WSW,249,15.0,27.0,28,-99.99,,,-99.99,,2013-03-20 22:23:00,
2013-03-20 18:33:00,47.0,15.0,29.80,WSW,249,15.0,27.0,28,-99.99,,,-99.99,,2013-03-20 22:33:00,
2013-03-20 18:43:00,47.0,15.0,29.80,WSW,249,15.0,27.0,28,-99.99,,,-99.99,,2013-03-20 22:43:00,
2013-03-20 18:53:00,47.0,15.0,29.80,WSW,249,15.0,27.0,28,-99.99,,,-99.99,,2013-03-20 22:53:00,
2013-03-20 19:00:00,45.0,15.0,29.80,West,264,9.0,20.0,30,-99.99,,,-99.99,,2013-03-20 23:00:00,
2013-03-20 19:23:00,45.0,15.0,29.80,West,264,9.0,20.0,30,-99.99,,,-99.99,,2013-03-20 23:23:00,
2013-03-20 19:33:00,45.0,15.0,29.80,West,264,9.0,20.0,30,-99.99,,,-99.99,,2013-03-20 23:33:00,
2013-03-20 19:43:00,45.0,15.0,29.80,West,264,9.0,20.0,30,-99.99,,,-99.99,,2013-03-20 23:43:00,
2013-03-20 19:53:00,45.0,15.0,29.80,West,264,9.0,20.0,30,-99.99,,,-99.99,,2013-03-20 23:53:00,
2013-03-20 20:00:00,43.0,21.0,29.80,SSW,202,3.0,11.0,41,-99.99,,,-99.99,,2013-03-21 00:00:00,
2013-03-20 20:23:00,43.0,21.0,29.80,SSW,202,3.0,11.0,41,-99.99,,,-99.99,,2013-03-21 00:23:00,
2013-03-20 20:33:00,43.0,21.0,29.80,SSW,202,3.0,11.0,41,-99.99,,,-99.99,,2013-03-21 00:33:00,
2013-03-20 20:42:00,43.0,21.0,29.80,SSW,202,3.0,11.0,41,-99.99,,,-99.99,,2013-03-21 00:42:00,
2013-03-20 20:53:00,43.0,21.0,29.80,SSW,202,3.0,11.0,41,-99.99,,,-99.99,,2013-03-21 00:53:00,
2013-03-20 21:00:00,41.0,23.0,29.80,NW,317,3.0,6.0,48,-99.99,,,-99.99,,2013-03-21 01:00:00,
2013-03-20 21:22:00,41.0,23.0,29.80,NW,317,3.0,6.0,48,-99.99,,,-99.99,,2013-03-21 01:22:00,
2013-03-20 21:33:00,41.0,23.0,29.80,NW,317,3.0,6.0,48,-99.99,,,-99.99,,2013-03-21 01:33:00,
2013-03-20 21:42:00,41.0,23.0,29.80,NW,317,3.0,6.0,48,-99.99,,,-99.99,,2013-03-21 01:42:00,
2013-03-20 21:53:00,41.0,23.0,29.80,NW,317,3.0,6.0,48,-99.99,,,-99.99,,2013-03-21 01:53:00,
2013-03-20 22:00:00,42.0,26.0,29.80,ESE,123,4.0,9.0,53,-99.99,,,-99.99,,2013-03-21 02:00:00,
2013-03-20 22:23:00,42.0,26.0,29.80,ESE,123,4.0,9.0,53,-99.99,,,-99.99,,2013-03-21 02:23:00,
2013-03-20 22:33:00,42.0,26.0,29.80,ESE,123,4.0,9.0,53,-99.99,,,-99.99,,2013-03-21 02:33:00,
2013-03-20 22:42:00,42.0,26.0,29.80,ESE,123,4.0,9.0,53,-99.99,,,-99.99,,2013-03-21 02:42:00,
2013-03-20 22:52:00,42.0,26.0,29.80,ESE,123,4.0,9.0,53,-99.99,,,-99.99,,2013-03-21 02:52:00,
2013-03-20 23:00:00,41.0,21.0,29.80,West,265,2.0,9.0,44,-99.99,,,-99.99,,2013-03-21 03:00:00,
2013-03-20 23:22:00,41.0,21.0,29.80,West,265,2.0,9.0,44,-99.99,,,-99.99,,2013-03-21 03:22:00,
2013-03-20 23:33:00,41.0,21.0,29.80,West,265,2.0,9.0,44,-99.99,,,-99.99,,2013-03-21 03:33:00,
2013-03-20 23:43:00,41.0,21.0,29.80,West,265,2.0,9.0,44,-99.99,,,-99.99,,2013-03-21 03:43:00,
2013-03-20 23:53:00,41.0,21.0,29.80,West,265,2.0,9.0,44,-99.99,,,-99.99,,2013-03-21 03:53:00,